Regional Weather Roundup
Issued by NWS Wakefield, VA

Current Version | Previous Version | Text Only | Print | Product List | Glossary Off
Versions: 1 2 3 4 5 6 7 8 9 10 11 12 13 14 15 16 17 18 19 20 21 22 23 24 25 26 27

000
ASUS41 KAKQ 230416
RWRAKQ

REGIONAL WEATHER ROUNDUP
NATIONAL WEATHER SERVICE WAKEFIELD VA
1200 AM EDT WED AUG 23 2017

Note: "fair" indicates few or no clouds below 12,000 feet with no
significant weather and/or obstructions to visibility. * = Denotes
station may not report precipitation (e.g., rain,snow,etc.),
thunder or fog.

VAZ042-051-052>054-056-230500-
NORTHERN VIRGINIA

CITY           SKY/WX    TMP DP  RH WIND       PRES   REMARKS
WASH NATIONAL  MOCLDY    83  73  72 S12       29.81F
DULLES         MOCLDY    80  72  76 W7        29.82S
FORT BELVOIR   CLOUDY    83  71  68 S5        29.81F
QUANTICO       CLEAR     83  73  72 SW7       29.83S
FREDERICKSBRG* CLEAR     82  73  76 S10       29.83S
STAFFORD*      CLEAR     80  73  78 S5        29.87S
WARRENTON      PTCLDY    81  68  63 S5        29.83R
CULPEPER*      PTCLDY    81  71  72 SW5       29.84S
MANASSAS*      CLOUDY    79  72  79 S6        29.82F
LEESBURG*      CLOUDY    81  72  74 NW17G25   29.86R
WINCHESTER     RAIN      72  68  88 NW12      29.86F
FRONT ROYAL*   CLOUDY    77  68  73 N6        29.86R
LURAY*         MOCLDY    79  70  73 SW5       29.86S
$$

VAZ048-049-060>072-079>083-230500-
CENTRAL AND SOUTH CENTRAL VIRGINIA

CITY           SKY/WX    TMP DP  RH WIND       PRES   REMARKS
RICHMOND       PTCLDY    80  74  81 S13       29.87F
CHESTERFIELD*  FAIR      79  74  84 S7        29.88F
PETERSBURG*    CLEAR     77  73  87 S5        29.90F
HANOVER        CLEAR     82  70  66 S10       29.87F
TAPPAHANNOCK*  CLEAR     81  72  74 S7        29.87F
QUINTON*       FAIR     N/A N/A N/A S6        29.87F
CHARLOTTSVILLE PTCLDY    80  70  71 SW6       29.85F
GORDONSVILLE*  CLOUDY    78  70  76 SW6       29.84F
ORANGE*        PTCLDY    79  68  69 S5        29.84F
LOUISA*        CLEAR     79  70  73 S3        29.85F
BUMPASS*       FAIR      78  74  87 S3        29.85F
FARMVILLE*     CLEAR     78  68  71 S7        29.87F
CREWE*         FAIR      78  73  86 CALM      29.89F
FORT PICKETT*  FAIR     N/A N/A N/A S12       29.91S
CHASE CITY*    FAIR      78  73  82 CALM      29.91F
CLARKSVILLE*   FAIR      77  73  88 S6        29.91F
SOUTH HILL*    CLEAR     77  75  92 S7        29.97F
LAWRENCEVILLE* FAIR      78  74  88 S7        29.91F
EMPORIA*       CLEAR     77  73  88 SE3       29.92F
$$

VAZ088>098-230500-
SOUTHEAST VIRGINIA

CITY           SKY/WX    TMP DP  RH WIND       PRES   REMARKS
NORFOLK        CLEAR     81  76  84 SW17      29.89F
VIRGINIA BEACH CLEAR     80  73  79 SW15      29.89S
NORFOLK NAVAL  PTCLDY    81  74  79 SW9       29.91S
WEST POINT*    PTCLDY    81  75  81 SW8       29.89S
SALUDA*        FAIR      81  77  89 S8G17     29.87S
NEWPORT NEWS   CLEAR     80  74  81 SW13      29.90R
LANGLEY AFB    CLEAR     81  75  84 SW15      29.89S
FORT EUSTIS    CLEAR     80  75  85 S8        29.87S
WILLIAMSBURG*  CLEAR     82  75  78 CALM      29.90S
HR EXEC AP*    FAIR      79  73  83 SW9       29.89S
FRANKLIN*      CLEAR     78  74  88 S6        29.91S
US460-WAKEFLD  CLEAR     79  76  90 S6        29.90S
$$

VAZ020-022-025-037-045-230500-
WEST CENTRAL AND SOUTHWEST VIRGINIA

CITY           SKY/WX    TMP DP  RH WIND       PRES   REMARKS
STAUNTON*      MOCLDY    76  67  74 SW3       29.91S
WAYNESBORO*    PTCLDY    80  68  66 SW7       29.91F
HOT SPRINGS VA CLOUDY    70  59  68 W14G21    30.05F
LYNCHBURG      CLOUDY    76  69  79 S6        29.91F
DANVILLE       CLEAR     76  72  87 S5        29.92F
SOUTH BOSTON*  FAIR      76  71  84 SW3       29.91F
MARTINSVILLE   CLEAR     71  69  94 CALM      29.96F
ROANOKE        MOCLDY    79  66  64 CALM      29.94F
BLACKSBURG     CLOUDY    69  65  85 CALM      30.02F
DUBLIN*        CLOUDY    72  65  80 W3        30.01F
MARION*        CLEAR     70  52  53 W3        30.05F
HILLSVILLE*    CLOUDY    73  64  74 CALM      30.03F
RICHLANDS*     FAIR      74  61  64 CALM      30.04F
WISE*          PTCLDY    72  72 100 CALM      30.06S
ABINGDON*      CLOUDY    74  67  78 CALM      30.02S
$$

MDZ021>025-VAZ099-100-230500-
SOUTHERN MARYLAND AND THE DELMARVA PENINSULA

CITY           SKY/WX    TMP DP  RH WIND       PRES   REMARKS
PATUXENT RIVER CLEAR     81  75  82 SW13      29.84S
BAY BRIDGE APT CLEAR     82  75  78 SW13G20   29.81S
LEONARDTOWN    CLEAR     81  72  74 S8        29.86S
DOVER          MOCLDY    81  77  89 S16       29.79F
GEORGETOWN     NOT AVBL
EASTON         CLEAR     83  74  74 SW14      29.86S
CAMBRIDGE      CLEAR     82  75  78 S8        29.84S
SALISBURY      CLEAR     77  77 100 S6        29.86R
OCEAN CITY     CLEAR     81  77  88 SW12      29.87R
WALLOPS ISLAND CLEAR     79  78  97 SW8       29.87S
ACCOMACK*      CLEAR     80  76  87 SW8       29.88S
$$

NCZ012>017-030>032-230500-
NORTH CENTRAL AND EASTERN NORTH CAROLINA

CITY           SKY/WX    TMP DP  RH WIND       PRES   REMARKS
ROANOKE RAPIDS FAIR      77  73  88 SW6       29.92S
RALEIGH        PTCLDY    81  72  74 SW12      29.95F
ELIZABETH CITY CLEAR     80  78  94 S13       29.92F
AHOSKIE*         N/A     77  75  94 S5        29.93R
EDENTON*       CLEAR     81  77  85 S12G17    29.94S
CURRITUCK*     CLEAR     80  75  85 SW5       29.92F
KILL DEVIL HLS CLEAR     80  74  82 SW7       29.93F
MANTEO         CLEAR     80  76  85 SW16      29.95S
CAPE HATTERAS  CLEAR     83  78  85 SW12      29.96F
TARBORO*       NOT AVBL
GOLDSBORO      CLEAR     79  73  81 NW6       29.95F
WASHINGTON     CLEAR     78  75  90 SW5       29.95S
GREENVILLE     CLEAR     81  75  83 SW8       29.96F
NEW BERN       CLEAR     77  76  96 S7        29.97F
WILMINGTON     CLEAR     79  75  87 S6        29.97F
$$

VAZ048-230500-
ELSEWHERE

CITY           SKY/WX    TMP DP  RH WIND       PRES   REMARKS
HARRISBURG PA  LGT RAIN  77  70  79 W6        29.81R
BALTIMORE      CLOUDY    82  72  71 SW5       29.80F
ANNAPOLIS      CLEAR     85  76  74 VRB7      29.80F
ANDREWS AFB    PTCLDY    81  71  72 SW14G21   29.81F
PHILADELPHIA   TSTM      74  72  93 W36G47    29.86S VSB 1/2
HENDERSON NC   CLEAR     75  69  82 SW6       29.93F
GREENSBORO     CLEAR     78  73  84 SW7       29.95F
ROCKY MOUNT    CLEAR     79  74  84 S9        29.94S
$$

VAZ100-230500-
MARINE

STATION/POSITION TIME  TEMP    WIND        PRES    WAVE   SWELL
                       AIR SEA DIR/SP/G            HT/PER HT/PER
                 (UTC) (F)     (DEG/KT/KT) (MB)    (FT/S) (FT/S)
BRANDYWINE LGT   0348          220/ 18/ 19   N/A
CAPE MAY NJ      0336   79 78  210/ 10/ 17 1009.8S
LEWES DE         0336   80 77  230/  9/ 15 1010.2S
15NM E FENWICK I 0350   80 78  200/ 19/ 21 1011.2R   5/ 5   2/11
OCEAN-CITY-INLET 0336   77 74  220/ 10/ 13 1011.6R
WACHAPREAGUE VA  0336   82 84  230/ 10/ 15 1011.8R
THOMAS POINT MD  0400   83 81  210/ 20/ 23   N/A
GOOSES REEF MD   0400   83 81  210/ 17/ 19 1010.4    2/ 3
COVE POINT MD    0336   83     220/ 14/ 21 1011.0F
SOLOMONS ISLAND  0348          210/ 14/ 19   N/A
BISHOPS HEAD MD  0336   83 83  210/ 14/ 19 1011.0S
PINEY POINT MD   0348          230/ 15/ 18   N/A
POTOMAC MD       0400   82 83  210/ 16/ 19 1009.8    2/ 3
CAMBRIDGE MD     0336   82 83              1011.2S
LEWISETTA VA     0336   81 84  230/ 11/ 13 1010.8F
RAPPAHANNOCK LGT 0342          200/ 21/ 24 1012.3R
STINGRAY PT      0400   83 82  250/ 14/ 17 1011.9    1/ 2
YORK RVR RNG VA  0336   82     230/ 18/ 21 1012.2S
YORKTOWN VA      0336   82 84  210/  9/ 15 1011.7R
JAMESTOWN VA     0400      85  210/ 12/ 16   N/A     0
DOMINION TERM VA 0342   81     210/ 13/ 18 1012.6R
KIPTOPEKE VA     0342      82  220/ 17/ 20   N/A
CHES BAY BRIDGE  0342   81 80  230/ 20/ 25 1011.9S
CAPE HENRY VA    0342   80     200/  9/ 16   N/A
WILLOUBY STN VA  0348          220/ 16/ 19   N/A
S CRANEY ISL VA  0342   81     210/ 11/ 16 1012.3S
CAPE HENRY BUOY  0400      79                N/A     3/10   2/11
1ST LANDING BUOY 0400   81 80              1012.2    2/ 3
64NM E OF VA BCH 0350   80 80  210/ 17/ 19 1013.3F   4/10   3/10
DUCK PIER NC     0342   82 72  210/ 17/ 22 1012.9F
44100 DUCK FRF   0305      81                N/A     3/10   2/11
44056 DUCK FRF   0400      76                N/A     3/ 9   2/11
OREGON INLET NC  0348          200/ 22/ 25   N/A
HATTERAS NC      0342   82 84  230/ 11/ 14 1014.6F
DIAMOND SHLS NC  0350   84 86  220/ 17/ 21 1014.5F   5/ 8   3/ 8
CAPE LOOKOUT NC  0400   82     220/ 10/ 14 1014.5F
$$




USA.gov is the U.S. government's official web portal to all federal, state and local government web resources and services.